Vorticity
10 9 9 10 12 11 11 13 7 1 6 5 2 7 8 7 9 10 9 4 6 18 21 15 7 6 6 -1 3 6 -1 3 3 2 11 10 3 4 4 3 4 3 3 5 6 9 14 11 8 8 8 8 7 6 7 7 7 6 6 7 6 6 7 7 8 10 10 8 8 8 7 7 7 7 7 7 7 8 8 9 9 9 8 9 9 9
10 9 10 12 13 12 8 9 11 5 4 6 1 2 5 8 11 10 7 -1 2 20 28 21 8 3 5 1 8 11 -2 3 6 1 10 12 4 4 4 3 4 6 4 5 5 6 14 14 10 9 7 7 6 6 6 7 8 7 7 7 6 7 7 6 8 9 8 8 9 10 9 7 7 8 7 7 7 8 8 9 9 9 8 9 9 10
13 14 14 12 11 12 8 8 13 8 4 4 1 -1 2 10 9 6 9 -4 -6 18 28 26 16 6 7 5 11 11 -6 -1 7 -3 3 12 7 3 5 4 3 7 5 4 6 5 10 14 11 8 8 8 6 5 6 7 9 7 6 8 7 7 6 6 8 7 7 7 9 10 9 8 7 7 8 8 7 7 8 8 8 9 8 8 9 10
16 18 17 12 9 10 8 10 13 9 6 4 1 -1 1 10 9 3 10 -0 -7 11 19 23 21 7 7 5 5 5 -8 -2 6 -2 4 13 9 3 5 5 3 6 6 3 5 4 6 10 9 7 8 9 8 6 6 7 8 8 6 7 8 8 6 5 7 6 7 7 8 9 8 8 8 8 8 7 7 6 7 7 6 7 8 7 8 9
15 13 14 11 9 11 10 10 11 9 8 7 4 1 0 9 12 4 7 5 -2 -1 9 34 35 11 6 5 3 5 -2 0 2 -1 9 14 8 4 4 5 2 4 6 4 4 4 4 7 8 8 7 8 9 7 6 7 7 7 6 6 7 7 6 5 5 5 5 6 7 7 8 8 8 8 8 6 7 6 6 6 6 6 6 6 6 7
11 9 12 11 10 12 10 7 9 8 7 9 9 6 1 5 12 6 4 6 2 -7 -0 29 35 15 11 6 4 10 4 -2 -3 -0 8 10 8 7 5 5 2 3 6 3 3 4 4 7 8 8 7 7 8 9 8 8 8 7 6 6 6 7 6 4 4 4 4 4 5 5 6 8 8 8 8 7 6 6 6 5 5 5 5 4 5 5
9 10 12 13 12 11 9 6 7 8 6 7 11 9 4 4 10 8 4 3 3 -3 -4 13 25 18 13 9 5 6 1 -5 -3 2 6 7 9 9 6 5 3 4 7 5 4 5 5 6 7 7 6 6 6 7 8 8 8 8 6 6 7 8 7 5 4 4 4 5 5 5 5 6 7 6 7 7 7 6 6 5 5 5 4 4 4 5
8 8 13 15 14 10 8 6 6 8 5 5 11 11 6 5 9 11 7 2 2 1 -4 4 20 19 12 15 13 4 0 2 -0 -0 6 9 9 9 7 5 5 5 6 7 6 5 5 5 6 7 6 7 7 6 6 6 6 7 6 6 8 9 8 6 5 5 5 6 6 4 5 5 5 5 5 7 7 7 6 6 5 5 4 4 4 4
9 10 15 16 13 8 8 7 6 7 6 4 9 10 7 8 11 11 8 7 4 2 2 2 13 21 15 15 18 7 -3 -1 2 3 7 9 8 9 7 5 6 6 5 7 6 5 5 5 5 8 7 7 8 6 6 5 4 5 5 5 7 9 8 7 6 6 6 6 6 5 5 4 4 4 4 5 7 7 8 7 7 6 6 5 5 4
15 15 16 14 12 11 10 9 7 7 6 6 10 10 5 7 12 11 8 10 5 1 9 8 8 20 21 13 13 10 0 3 11 10 7 8 10 9 7 5 5 6 5 6 6 5 4 4 5 6 8 7 8 8 7 6 4 4 4 4 6 8 8 8 7 6 5 5 6 7 5 4 5 5 4 4 5 6 6 8 8 8 8 7 7 6
13 12 15 14 13 11 7 6 6 8 7 5 11 13 7 3 7 9 8 11 10 8 15 15 6 10 20 23 16 6 7 14 17 11 6 8 11 9 6 6 4 5 7 6 6 7 4 4 5 6 7 7 8 8 8 8 7 6 5 4 5 7 8 9 7 5 4 4 5 6 5 4 5 4 5 5 5 6 6 5 7 7 7 8 8 7
7 9 15 17 16 9 4 6 4 6 8 6 7 8 8 9 7 7 7 5 11 15 15 15 9 0 7 28 30 14 12 14 8 6 8 9 12 10 6 6 4 3 6 6 5 6 6 6 8 7 7 7 7 7 8 9 8 7 6 5 5 7 8 9 8 5 4 4 5 5 5 5 4 4 6 6 5 6 5 4 5 6 6 6 7 7
8 11 12 16 22 12 2 5 5 3 2 4 8 3 3 12 10 6 5 2 10 17 10 5 10 9 9 22 29 20 13 9 2 3 7 9 10 8 5 6 6 4 5 7 6 5 6 7 8 7 8 8 7 6 7 8 8 7 6 6 6 6 7 9 9 7 5 5 7 6 5 5 5 5 6 6 6 6 6 5 5 5 5 5 7 6
11 9 3 8 23 19 5 2 4 6 -1 -0 10 2 -3 11 13 6 4 2 10 19 10 -2 4 17 22 26 28 24 19 12 7 6 6 6 8 8 6 5 5 5 4 6 7 6 5 5 6 6 6 7 6 6 6 6 7 8 6 6 6 5 5 7 8 8 6 6 8 7 6 5 5 6 5 5 6 5 6 7 7 5 4 5 6 6
13 5 -5 2 20 24 14 3 1 7 1 2 12 2 -6 6 9 4 3 1 5 13 10 -1 -3 5 18 34 39 31 23 12 4 8 6 2 7 8 5 5 6 6 5 5 7 6 5 4 4 5 5 5 5 6 6 5 5 6 6 5 6 6 5 5 6 7 7 7 7 8 8 7 6 6 5 5 6 5 5 7 8 7 6 5 6 6
10 -1 -5 0 13 19 16 9 4 6 4 7 15 6 -1 6 6 3 3 2 5 10 12 9 2 -6 4 38 52 31 16 10 5 8 6 1 7 8 3 6 7 7 6 5 6 6 5 4 4 5 5 5 5 6 6 6 5 5 5 4 4 5 5 5 5 5 6 6 6 7 8 8 7 7 6 5 5 5 5 6 7 7 6 5 6 7
7 -0 1 -1 5 10 12 13 9 8 9 10 9 4 5 11 7 4 4 4 7 6 7 14 16 2 -3 28 53 33 9 6 5 6 6 3 6 6 3 6 7 8 11 8 6 7 6 6 6 5 4 5 5 6 6 7 6 5 6 5 3 4 4 5 6 6 6 6 5 6 6 7 7 7 7 6 5 6 5 5 6 6 6 6 7 8
7 3 8 -0 -2 6 9 11 11 9 8 7 8 10 13 13 6 5 11 13 10 4 3 7 10 8 1 13 40 40 21 13 8 5 8 6 4 5 4 5 6 6 10 11 8 6 5 7 9 6 4 4 5 4 5 6 6 5 6 7 5 3 3 4 5 5 5 5 5 5 4 5 6 5 6 5 6 7 6 5 6 5 6 7 6 6
4 5 16 2 -6 7 9 2 6 14 10 4 7 13 16 14 5 3 13 17 11 6 10 13 7 1 -1 4 24 38 31 25 21 13 14 13 5 4 4 3 5 4 6 11 9 6 6 7 11 11 6 4 4 4 4 4 4 5 6 8 7 5 3 4 6 6 5 5 5 5 5 5 5 5 5 5 5 6 6 5 6 5 5 5 4 5
-2 3 24 10 -6 9 14 -0 -1 12 17 8 3 9 13 13 6 -3 0 9 8 4 9 21 20 8 -2 -5 8 30 32 23 21 19 26 34 18 5 6 4 4 4 4 7 7 5 6 6 10 13 10 7 4 3 4 3 4 4 5 8 8 6 4 3 4 5 5 4 4 5 5 5 6 5 5 5 5 6 6 5 6 7 6 6 4 4
-3 -4 20 18 -0 1 5 3 1 1 8 7 2 8 13 16 18 8 -1 1 1 -1 1 11 21 19 11 -7 -9 25 38 17 16 22 28 40 28 6 3 5 6 6 3 5 7 5 4 4 6 9 11 11 7 5 7 7 6 6 8 9 8 7 7 5 4 4 5 4 3 4 4 4 5 5 5 6 5 5 6 5 7 8 8 8 7 7
6 -6 8 18 5 -5 -4 5 10 3 2 3 1 5 6 9 18 13 5 6 5 4 3 3 8 15 21 5 -10 24 46 16 10 23 21 26 26 11 5 3 4 7 3 2 5 5 4 3 3 5 9 12 9 6 8 11 12 11 12 15 13 11 11 8 5 4 4 4 3 3 3 3 4 4 4 5 5 4 5 5 6 7 7 8 9 9
18 4 8 18 4 -5 1 9 12 5 -0 -1 -1 3 0 -0 9 7 0 2 2 7 8 1 -2 -0 15 18 -3 12 39 21 8 18 15 15 18 13 10 7 4 3 2 3 3 2 2 1 1 3 7 11 9 5 4 6 8 9 10 13 14 14 16 13 9 6 5 5 4 4 3 2 3 3 3 3 4 4 3 3 4 3 4 6 6 7
20 11 10 13 -3 -7 5 13 15 8 1 1 0 3 4 2 7 9 4 -3 -9 -0 11 10 3 -7 0 18 9 1 17 22 17 18 15 13 11 8 11 20 25 16 5 4 2 -0 2 2 0 1 3 7 6 3 3 2 4 5 5 8 10 13 16 16 13 9 7 5 5 5 6 4 4 4 4 3 3 4 4 4 4 3 3 4 3 3
18 14 10 5 -3 -3 2 10 20 14 6 7 5 4 8 5 3 8 16 16 5 1 9 15 16 5 -6 3 14 7 1 10 19 18 15 14 8 3 6 22 39 34 16 9 8 8 10 10 8 3 -0 2 3 2 3 2 2 3 3 5 7 7 10 13 14 11 8 6 5 6 6 6 6 6 5 5 4 4 6 5 5 6 6 6 5 4
21 16 12 5 3 5 2 6 17 12 4 8 9 8 9 6 3 7 14 20 14 8 12 16 20 21 7 -3 7 11 2 10 25 21 16 16 11 8 7 10 23 26 15 10 11 13 11 10 15 14 6 4 3 0 2 4 2 2 3 4 3 2 5 10 13 12 8 5 5 5 6 5 6 6 5 5 5 6 7 7 7 8 8 8 7 7
24 17 10 6 7 8 6 7 11 9 4 4 8 10 7 3 1 4 10 11 5 3 8 8 8 19 21 8 4 7 1 10 24 18 11 12 10 8 6 5 13 18 12 7 7 9 5 3 13 23 18 10 4 -2 -1 3 2 2 5 5 2 2 5 5 9 14 15 12 8 6 6 7 6 6 6 5 6 6 6 7 7 8 8 8 8 8
22 19 10 8 10 9 7 6 5 9 11 6 6 8 5 2 -1 -1 8 10 3 1 3 3 3 12 21 16 8 6 2 2 10 9 6 8 7 6 8 8 13 18 17 13 10 9 7 5 10 17 16 14 14 11 4 1 2 3 6 8 3 2 4 -0 -1 7 14 15 15 13 11 11 10 8 8 8 8 8 8 8 8 8 8 8 8 8
17 20 14 10 12 11 9 4 -1 4 12 10 8 7 1 0 -0 -1 6 10 7 4 -0 0 2 3 11 17 12 8 6 3 4 5 7 10 8 8 11 11 9 7 5 9 12 13 14 11 8 7 9 13 21 24 13 4 4 5 5 8 2 -0 7 5 -1 6 14 12 11 12 11 13 14 11 10 10 10 10 9 8 8 8 8 8 8 9
11 17 20 14 10 10 10 9 4 5 10 11 10 10 5 -1 -4 -1 6 9 9 4 -3 -3 -1 -5 1 13 14 11 8 5 5 5 5 9 11 10 12 15 15 13 10 12 17 21 21 16 10 8 10 12 19 26 20 9 8 10 9 9 3 -2 4 8 0 1 9 9 6 7 9 10 12 12 11 10 10 11 11 10 9 8 7 8 8 8
9 11 20 20 14 11 10 13 15 9 7 8 9 12 11 3 -3 -1 3 3 3 2 1 2 1 -4 -3 4 8 10 9 4 5 7 6 6 6 4 6 13 21 26 24 22 23 28 30 26 21 18 15 12 15 21 18 8 5 10 8 4 5 5 6 12 8 -1 1 7 5 4 7 8 9 9 9 9 10 11 10 10 9 8 8 9 9 9
11 9 11 15 19 20 15 14 13 6 3 5 7 10 12 9 5 3 2 1 0 1 3 4 2 -2 -2 0 1 7 10 6 3 6 6 5 3 -2 -5 -1 6 11 10 8 9 14 16 15 17 22 23 22 22 22 21 18 13 11 6 2 10 14 6 5 8 2 -1 4 6 4 5 4 3 3 3 3 5 6 6 7 7 7 7 7 7 8
13 14 10 9 14 20 20 15 12 10 6 4 6 8 11 11 9 7 3 2 4 6 5 3 3 2 2 2 0 2 7 8 5 5 7 7 4 3 3 3 4 3 1 0 1 4 5 4 7 13 17 23 26 24 24 24 18 12 10 6 7 11 11 8 10 10 6 2 4 11 12 5 2 4 4 2 1 1 3 5 6 7 8 7 7 8
12 15 14 11 10 15 20 18 16 15 10 4 6 9 9 10 9 9 9 5 2 4 3 1 2 3 2 4 3 0 1 6 7 5 6 7 6 5 7 9 10 10 9 8 5 5 7 9 9 9 13 20 26 24 22 20 16 11 8 7 7 11 16 17 15 19 18 7 -0 6 11 7 3 4 6 5 3 2 2 3 4 4 5 5 5 5
15 17 17 16 12 11 17 20 21 20 12 5 8 9 8 8 7 8 13 11 4 0 -1 -1 1 3 4 6 8 6 1 -1 0 -1 -1 3 6 5 5 5 5 6 5 3 1 4 7 8 8 7 8 16 25 26 22 17 15 12 10 15 21 20 16 16 18 24 25 14 3 4 7 3 -2 1 8 9 7 5 4 2 -0 -0 2 4 4 2
14 15 16 20 19 15 14 16 20 23 16 6 7 13 14 10 5 3 7 10 8 4 1 -0 1 10 17 12 10 14 11 2 -3 -3 -2 -1 1 2 3 3 2 1 -2 -5 -1 10 15 13 13 12 8 8 14 20 24 23 22 25 29 30 28 20 14 16 23 27 22 13 10 10 6 -2 -2 7 14 12 8 7 6 3 1 1 4 5 4 2
7 7 7 14 20 20 18 14 14 20 19 9 3 7 14 14 10 7 4 6 8 8 10 4 -8 -0 19 17 9 18 27 19 6 -1 0 2 1 2 3 2 1 2 -0 -6 -6 3 7 1 2 10 10 5 2 7 19 28 28 27 28 24 17 12 12 16 22 26 24 20 19 20 18 14 13 13 10 8 8 7 6 7 9 9 9 9 8 7
7 7 7 9 13 19 23 21 16 15 17 16 9 6 10 11 10 10 8 8 8 6 11 10 -7 -11 6 7 -3 1 16 23 18 8 5 4 0 2 7 7 5 4 3 1 -1 1 6 4 3 7 10 9 8 8 7 6 6 5 6 9 9 7 9 13 13 10 8 6 8 13 18 19 15 9 5 6 9 7 4 7 8 8 11 12 11 10
10 9 10 10 11 17 23 25 22 17 14 16 16 15 11 4 1 5 9 12 12 5 3 10 9 6 8 6 2 3 10 22 28 24 18 11 3 2 6 9 11 9 5 4 5 3 5 10 12 10 9 8 9 5 -5 -12 -9 -3 1 4 1 -6 -8 -4 -3 -4 -3 1 6 10 12 11 8 7 7 8 11 12 12 12 9 8 10 11 13 17
13 16 18 15 11 14 20 22 23 21 16 14 18 21 18 8 2 4 7 10 15 11 1 1 9 12 8 4 7 10 6 5 11 19 22 18 11 7 8 8 11 15 12 5 5 7 7 5 6 9 10 9 6 4 2 2 7 10 8 4 1 -1 1 5 9 11 12 14 15 14 14 13 13 13 11 9 12 14 14 12 11 11 11 11 14 18
12 17 22 21 15 11 16 21 22 20 15 13 19 24 24 18 10 7 9 10 10 11 6 -2 1 7 6 -2 -2 6 4 -7 -8 4 17 20 13 8 13 14 10 16 27 23 11 9 11 8 7 9 9 7 6 9 14 17 18 17 16 14 12 14 14 12 10 11 10 9 9 10 13 14 14 13 12 10 10 10 9 8 10 12 12 12 10 5
14 15 16 19 18 12 12 15 17 19 16 11 15 23 27 26 18 13 19 19 9 4 4 -1 -3 2 5 2 -2 1 5 7 10 16 21 24 16 2 3 13 11 7 19 31 25 17 14 14 13 13 15 16 18 21 22 17 11 8 8 9 9 9 8 7 7 8 9 9 8 9 10 10 7 7 9 8 7 8 8 7 9 10 12 12 10 6
13 13 11 14 17 16 16 15 13 16 18 13 13 20 26 27 21 15 20 23 12 2 2 3 0 -2 -1 2 2 -1 5 15 15 2 -6 5 17 10 -1 4 8 -1 -3 12 24 26 27 31 29 23 23 24 21 18 17 15 11 9 7 7 7 5 5 6 5 5 5 7 6 5 4 3 3 5 7 6 6 5 4 4 5 6 7 8 8 9
10 10 11 12 16 19 22 21 16 15 16 14 14 17 20 24 24 17 12 11 7 3 2 3 3 4 3 4 3 -0 -2 -5 -17 -33 -31 -6 20 24 9 -2 -1 3 3 8 15 15 16 21 18 9 4 3 -1 -2 3 8 11 12 11 9 8 8 8 7 4 3 5 7 8 4 1 2 6 8 8 7 7 7 5 5 4 3 3 3 2 3
11 11 11 11 15 21 24 24 22 19 16 13 14 16 16 18 23 22 14 9 8 10 10 4 -2 0 8 11 8 1 -7 -11 -12 -6 8 21 22 19 17 10 5 8 12 14 15 13 10 9 6 1 -2 -3 -5 -4 -0 4 8 9 8 6 4 4 4 5 4 4 5 6 8 6 4 3 3 2 3 5 7 7 7 7 7 7 6 5 4 3
12 11 11 11 16 23 25 23 22 21 20 18 15 16 16 16 21 26 22 17 16 17 23 27 21 14 13 13 13 7 -3 -4 5 13 21 23 14 8 17 23 17 11 10 11 14 16 14 12 12 13 12 10 8 6 6 7 8 9 9 8 5 3 2 3 5 6 7 6 7 8 7 5 3 1 3 6 7 7 7 7 7 8 8 7 7 6
18 11 8 11 17 22 24 21 16 16 20 19 12 11 14 15 19 26 27 26 24 17 14 20 25 25 24 23 21 15 8 9 16 17 16 18 15 12 16 19 14 9 7 6 7 8 8 7 8 9 11 13 13 12 11 11 10 9 9 8 7 5 4 3 3 5 6 6 6 7 8 8 7 7 6 7 7 7 8 8 9 10 10 10 10 9
21 14 9 14 15 14 21 29 24 13 11 14 15 15 13 10 12 18 23 29 34 27 17 14 14 17 25 31 32 31 28 28 28 22 18 18 16 13 12 11 9 8 7 5 6 7 8 9 7 5 5 5 4 5 5 6 8 9 9 9 8 6 4 3 3 3 3 4 5 5 6 7 7 7 8 7 7 6 6 7 7 7 7 6 6 5
20 16 12 18 17 8 15 33 34 17 8 16 27 27 16 8 10 12 12 15 20 20 19 20 18 15 16 20 25 30 31 29 24 18 16 18 16 11 8 8 10 11 9 8 8 8 8 10 10 10 9 7 5 5 4 4 5 6 7 9 9 8 7 7 7 6 6 6 6 6 6 6 6 6 6 6 5 5 4 2 0 -0 -1 -1 -0 0
18 15 11 18 18 8 8 21 30 27 21 21 25 24 16 11 11 11 9 10 13 14 14 16 16 16 15 14 15 16 16 14 13 11 10 10 9 8 8 8 9 8 8 9 9 9 9 10 10 11 12 11 11 10 9 9 8 7 7 9 9 9 8 8 7 6 6 7 7 8 8 8 8 7 6 6 6 5 4 2 1 1 1 1 1 3
14 14 12 16 15 9 8 12 17 24 28 24 20 24 26 19 10 10 13 14 12 11 11 11 10 10 12 12 13 12 11 10 10 11 10 10 10 10 9 9 9 9 9 10 9 8 8 8 8 9 10 10 11 12 12 12 12 10 10 10 10 11 12 11 11 10 8 7 6 6 6 6 7 8 8 8 8 7 7 7 6 6 6 6 6 6
Height
5841 5844 5846 5851 5856 5860 5863 5863 5863 5863 5865 5867 5868 5869 5870 5872 5874 5875 5877 5878 5879 5879 5880 5882 5883 5885 5887 5889 5891 5893 5894 5895 5897 5900 5902 5903 5905 5906 5907 5908 5909 5910 5911 5912 5913 5914 5915 5916 5917 5918 5918 5919 5920 5920 5921 5922 5922 5923 5924 5924 5924 5925 5926 5926 5926 5926 5927 5927 5927 5928 5928 5929 5930 5931 5932 5932 5933 5933 5934 5934 5934 5934 5934 5935 5935 5935
5840 5843 5847 5852 5855 5858 5859 5859 5860 5862 5864 5865 5866 5867 5869 5870 5872 5874 5875 5875 5876 5877 5878 5880 5882 5883 5885 5888 5889 5891 5893 5895 5897 5899 5901 5903 5905 5906 5907 5908 5909 5910 5911 5912 5913 5914 5915 5916 5917 5918 5919 5920 5920 5921 5922 5922 5923 5924 5924 5925 5925 5925 5926 5926 5927 5928 5928 5929 5929 5929 5929 5930 5931 5932 5932 5933 5933 5934 5934 5935 5935 5935 5935 5936 5936 5936
5840 5844 5849 5851 5853 5854 5854 5856 5858 5860 5861 5863 5864 5867 5868 5869 5871 5872 5873 5874 5875 5876 5877 5879 5880 5881 5883 5886 5888 5889 5891 5894 5896 5898 5900 5902 5904 5906 5907 5908 5909 5910 5911 5912 5913 5915 5915 5916 5918 5918 5919 5920 5921 5922 5922 5923 5923 5924 5924 5925 5926 5926 5926 5927 5928 5929 5929 5930 5930 5930 5930 5931 5932 5932 5933 5933 5934 5934 5935 5935 5936 5936 5936 5937 5937 5938
5840 5845 5847 5848 5849 5850 5851 5854 5855 5857 5860 5861 5863 5866 5867 5868 5870 5871 5872 5873 5874 5875 5876 5877 5878 5879 5882 5884 5886 5887 5889 5892 5895 5897 5899 5901 5903 5905 5906 5908 5909 5910 5911 5911 5913 5915 5915 5916 5918 5919 5919 5920 5921 5922 5923 5924 5924 5924 5925 5925 5926 5927 5927 5928 5928 5929 5930 5930 5931 5931 5931 5932 5933 5933 5933 5934 5934 5935 5936 5936 5937 5937 5937 5938 5938 5939
5838 5841 5842 5843 5844 5846 5849 5851 5853 5856 5859 5860 5862 5864 5865 5867 5868 5869 5871 5872 5873 5874 5875 5875 5876 5878 5880 5882 5884 5886 5888 5890 5893 5895 5898 5899 5901 5903 5905 5907 5907 5909 5910 5911 5913 5914 5915 5916 5918 5919 5920 5920 5921 5923 5924 5924 5924 5925 5925 5926 5927 5927 5928 5929 5929 5930 5930 5931 5932 5932 5933 5933 5933 5934 5934 5934 5935 5935 5936 5937 5938 5938 5938 5939 5939 5940
5835 5836 5838 5840 5842 5844 5846 5848 5851 5855 5857 5859 5861 5862 5863 5865 5866 5868 5869 5871 5872 5873 5873 5874 5875 5877 5879 5880 5883 5884 5886 5888 5890 5893 5896 5898 5900 5902 5905 5906 5907 5908 5909 5910 5912 5913 5915 5916 5918 5919 5920 5921 5922 5923 5924 5925 5925 5926 5927 5927 5928 5928 5929 5930 5930 5930 5931 5931 5932 5933 5933 5934 5934 5934 5935 5935 5936 5936 5936 5937 5938 5939 5939 5939 5940 5940
5833 5834 5836 5838 5841 5842 5844 5847 5850 5853 5856 5858 5859 5860 5861 5863 5865 5867 5868 5870 5871 5872 5872 5873 5874 5876 5878 5879 5881 5883 5885 5887 5888 5891 5893 5896 5898 5902 5904 5906 5906 5907 5909 5910 5911 5913 5915 5916 5918 5919 5920 5921 5922 5923 5924 5925 5926 5927 5928 5928 5929 5929 5930 5930 5931 5931 5931 5932 5933 5933 5934 5935 5935 5935 5936 5936 5937 5937 5937 5938 5938 5939 5939 5940 5940 5941
5832 5833 5835 5838 5840 5841 5843 5846 5849 5852 5855 5856 5857 5859 5860 5861 5864 5866 5867 5868 5869 5870 5871 5872 5873 5875 5876 5878 5880 5881 5883 5885 5887 5889 5891 5894 5897 5900 5903 5905 5906 5907 5908 5910 5911 5913 5914 5916 5917 5918 5919 5920 5921 5923 5924 5925 5926 5928 5928 5929 5929 5930 5930 5931 5931 5932 5932 5933 5933 5934 5935 5935 5936 5936 5937 5937 5938 5938 5938 5939 5939 5940 5940 5940 5941 5941
5831 5833 5835 5837 5838 5840 5843 5846 5849 5851 5853 5854 5856 5858 5859 5861 5864 5865 5866 5867 5867 5868 5870 5871 5872 5873 5875 5877 5878 5879 5880 5883 5885 5887 5890 5893 5895 5898 5901 5903 5905 5905 5907 5909 5910 5912 5914 5916 5917 5918 5919 5920 5921 5923 5924 5925 5926 5927 5928 5929 5930 5930 5931 5931 5932 5933 5933 5933 5934 5934 5935 5936 5937 5937 5938 5938 5939 5939 5939 5940 5940 5941 5941 5941 5942 5942
5831 5832 5833 5835 5837 5840 5843 5845 5847 5849 5852 5854 5855 5857 5859 5861 5863 5863 5864 5865 5866 5867 5869 5870 5871 5871 5873 5874 5875 5876 5878 5881 5884 5886 5889 5891 5893 5896 5899 5901 5903 5904 5906 5908 5910 5911 5912 5914 5917 5918 5919 5920 5921 5922 5924 5925 5926 5927 5928 5929 5930 5930 5931 5932 5932 5933 5934 5934 5935 5935 5936 5936 5937 5938 5938 5939 5939 5940 5940 5941 5941 5941 5942 5942 5943 5943
5829 5831 5832 5835 5837 5840 5842 5843 5845 5848 5850 5852 5854 5856 5858 5860 5860 5861 5863 5864 5865 5866 5868 5868 5869 5870 5870 5872 5873 5874 5877 5881 5883 5885 5887 5889 5891 5894 5897 5899 5902 5903 5904 5906 5908 5910 5911 5913 5915 5918 5919 5920 5921 5922 5923 5925 5926 5926 5927 5928 5929 5930 5931 5932 5933 5933 5934 5935 5935 5936 5936 5937 5937 5938 5939 5939 5940 5940 5941 5941 5942 5942 5942 5943 5943 5944
5829 5831 5833 5835 5837 5838 5840 5842 5844 5846 5848 5850 5852 5854 5856 5858 5859 5860 5862 5863 5864 5865 5866 5866 5866 5867 5868 5870 5871 5872 5876 5880 5881 5884 5886 5888 5890 5892 5895 5898 5900 5902 5903 5904 5906 5909 5911 5913 5915 5916 5918 5920 5921 5922 5923 5924 5925 5926 5927 5928 5929 5930 5931 5932 5933 5933 5934 5935 5936 5936 5937 5937 5938 5938 5939 5939 5940 5940 5941 5941 5942 5942 5943 5943 5944 5944
5829 5831 5833 5834 5835 5837 5838 5840 5842 5844 5846 5848 5850 5853 5855 5856 5857 5859 5861 5862 5863 5864 5865 5864 5864 5864 5865 5867 5868 5870 5874 5876 5878 5882 5884 5886 5889 5890 5893 5896 5898 5900 5901 5902 5904 5907 5910 5912 5914 5915 5917 5919 5920 5921 5922 5924 5925 5926 5927 5928 5929 5930 5931 5932 5933 5933 5934 5935 5936 5936 5937 5937 5938 5939 5939 5940 5940 5940 5941 5941 5942 5942 5943 5943 5944 5944
5829 5831 5833 5833 5834 5835 5837 5839 5841 5843 5845 5848 5850 5852 5854 5855 5856 5858 5860 5861 5862 5863 5863 5863 5863 5862 5863 5864 5864 5867 5870 5873 5876 5879 5881 5883 5886 5888 5890 5893 5896 5898 5900 5901 5902 5905 5908 5910 5912 5913 5915 5917 5919 5920 5921 5923 5924 5925 5926 5927 5929 5930 5931 5932 5933 5933 5934 5935 5936 5936 5937 5937 5938 5939 5939 5940 5940 5940 5941 5941 5942 5942 5942 5943 5944 5944
5829 5831 5832 5832 5832 5834 5837 5839 5841 5844 5846 5848 5849 5851 5853 5854 5856 5857 5858 5859 5860 5861 5861 5861 5861 5861 5861 5860 5861 5863 5867 5870 5873 5876 5878 5880 5882 5885 5887 5889 5892 5895 5897 5899 5901 5903 5906 5908 5910 5911 5913 5915 5917 5919 5920 5922 5923 5924 5925 5927 5928 5929 5930 5931 5932 5933 5934 5934 5935 5936 5937 5938 5938 5939 5940 5940 5940 5941 5941 5941 5942 5942 5942 5943 5943 5944
5828 5830 5831 5832 5833 5835 5837 5838 5840 5843 5845 5847 5848 5850 5852 5853 5855 5856 5857 5858 5859 5859 5860 5860 5860 5860 5859 5858 5858 5861 5864 5867 5871 5873 5875 5878 5880 5882 5883 5885 5888 5891 5895 5897 5899 5901 5903 5905 5908 5909 5911 5913 5914 5917 5919 5920 5922 5923 5924 5925 5926 5928 5929 5930 5932 5932 5933 5934 5935 5936 5937 5938 5938 5939 5940 5940 5941 5941 5941 5941 5941 5942 5943 5943 5943 5944
5828 5830 5831 5832 5834 5835 5836 5838 5840 5842 5844 5846 5847 5849 5850 5851 5853 5854 5855 5856 5857 5858 5858 5858 5858 5858 5858 5858 5858 5859 5862 5866 5869 5871 5874 5877 5879 5880 5883 5884 5886 5889 5893 5896 5897 5899 5901 5903 5906 5908 5909 5911 5912 5915 5917 5919 5920 5921 5923 5924 5925 5926 5928 5929 5931 5932 5933 5933 5934 5935 5936 5937 5937 5938 5939 5939 5940 5941 5941 5941 5941 5942 5942 5943 5943 5944
5828 5829 5830 5832 5834 5835 5835 5837 5838 5840 5842 5844 5846 5849 5849 5849 5852 5853 5854 5855 5856 5857 5857 5857 5857 5857 5857 5858 5857 5859 5861 5864 5867 5870 5872 5875 5877 5879 5882 5884 5886 5889 5892 5894 5896 5897 5899 5901 5903 5905 5907 5909 5911 5912 5915 5916 5918 5919 5921 5923 5924 5925 5926 5928 5929 5931 5932 5933 5934 5934 5935 5936 5936 5937 5938 5938 5939 5940 5941 5941 5941 5942 5942 5942 5943 5944
5827 5828 5830 5832 5834 5834 5835 5836 5836 5838 5840 5842 5844 5846 5846 5848 5850 5851 5852 5854 5854 5855 5855 5855 5856 5856 5856 5857 5857 5857 5859 5861 5864 5867 5869 5871 5874 5878 5882 5884 5885 5888 5890 5893 5894 5895 5897 5899 5902 5904 5906 5908 5909 5910 5912 5914 5916 5918 5920 5921 5923 5924 5925 5927 5928 5929 5931 5932 5933 5934 5934 5935 5935 5936 5937 5937 5938 5939 5939 5940 5940 5941 5941 5942 5942 5943
5826 5827 5829 5832 5833 5833 5834 5834 5835 5836 5838 5839 5841 5843 5844 5846 5847 5848 5850 5851 5852 5853 5854 5854 5855 5855 5856 5856 5856 5856 5857 5859 5861 5864 5866 5868 5871 5876 5879 5882 5884 5886 5889 5891 5893 5894 5896 5898 5900 5903 5904 5906 5907 5909 5910 5913 5915 5917 5918 5920 5922 5923 5924 5926 5927 5927 5928 5929 5931 5932 5933 5934 5934 5935 5936 5936 5937 5937 5938 5939 5939 5940 5940 5941 5941 5942
5825 5826 5828 5830 5831 5832 5833 5833 5834 5835 5836 5838 5839 5840 5842 5844 5845 5847 5849 5850 5851 5852 5853 5853 5854 5854 5855 5856 5856 5856 5856 5858 5860 5861 5863 5864 5868 5873 5876 5880 5882 5885 5887 5889 5891 5894 5895 5897 5899 5901 5902 5904 5906 5906 5909 5912 5914 5915 5916 5918 5920 5921 5923 5924 5924 5925 5926 5927 5928 5929 5931 5932 5933 5934 5934 5935 5936 5936 5937 5937 5938 5938 5939 5940 5940 5941
5823 5825 5827 5829 5830 5831 5831 5831 5832 5833 5834 5835 5836 5838 5840 5842 5843 5845 5847 5849 5851 5852 5852 5853 5853 5854 5855 5856 5856 5856 5856 5857 5859 5861 5862 5864 5868 5872 5876 5879 5882 5884 5886 5888 5889 5891 5892 5894 5896 5898 5900 5902 5904 5905 5907 5910 5912 5913 5915 5916 5917 5919 5921 5921 5922 5923 5924 5925 5926 5927 5928 5929 5930 5931 5932 5933 5934 5935 5935 5936 5936 5937 5938 5938 5939 5940
5821 5823 5825 5827 5829 5829 5828 5829 5831 5832 5833 5835 5836 5838 5840 5841 5842 5844 5846 5848 5850 5850 5851 5852 5853 5854 5855 5856 5856 5856 5856 5857 5859 5860 5862 5865 5868 5871 5874 5876 5879 5881 5883 5885 5887 5888 5891 5893 5895 5896 5898 5899 5901 5903 5905 5907 5910 5911 5912 5913 5914 5916 5918 5919 5919 5920 5921 5923 5924 5925 5926 5927 5928 5929 5930 5931 5932 5933 5934 5935 5935 5936 5937 5937 5938 5939
5819 5821 5823 5825 5827 5826 5826 5828 5830 5831 5833 5835 5837 5838 5840 5841 5841 5843 5845 5847 5848 5849 5850 5851 5852 5854 5855 5855 5856 5857 5857 5857 5858 5860 5862 5864 5867 5869 5871 5873 5875 5877 5879 5881 5884 5887 5890 5892 5894 5895 5897 5899 5899 5899 5900 5903 5906 5909 5910 5911 5912 5914 5915 5916 5916 5917 5918 5919 5921 5922 5923 5924 5925 5926 5927 5928 5929 5930 5931 5933 5934 5935 5936 5936 5937 5938
5816 5818 5820 5822 5824 5824 5824 5826 5828 5830 5832 5833 5835 5837 5838 5839 5840 5843 5844 5845 5847 5848 5850 5851 5852 5853 5854 5855 5856 5856 5857 5857 5858 5860 5862 5864 5866 5868 5869 5871 5872 5875 5878 5880 5883 5885 5887 5889 5890 5892 5895 5897 5898 5898 5898 5899 5901 5904 5907 5908 5909 5910 5911 5912 5913 5914 5915 5916 5917 5919 5920 5922 5923 5924 5924 5925 5926 5928 5929 5931 5932 5933 5934 5935 5935 5936
5814 5815 5817 5818 5820 5821 5822 5823 5825 5828 5830 5831 5833 5835 5836 5838 5840 5842 5843 5844 5846 5848 5849 5850 5851 5852 5854 5855 5856 5856 5857 5858 5859 5860 5862 5864 5865 5867 5868 5869 5871 5873 5876 5879 5881 5883 5884 5885 5887 5889 5891 5893 5895 5896 5897 5898 5899 5901 5903 5904 5906 5907 5909 5910 5911 5912 5913 5913 5915 5916 5918 5919 5920 5921 5922 5923 5924 5926 5927 5929 5930 5931 5932 5932 5933 5934
5811 5812 5814 5815 5817 5818 5819 5821 5824 5826 5827 5829 5831 5833 5835 5836 5839 5840 5841 5843 5845 5847 5848 5849 5850 5851 5853 5854 5856 5856 5857 5858 5859 5860 5862 5863 5865 5866 5867 5868 5870 5872 5875 5877 5879 5881 5882 5883 5884 5886 5888 5890 5891 5893 5895 5896 5897 5900 5902 5904 5907 5909 5909 5909 5910 5911 5912 5913 5914 5915 5916 5917 5918 5919 5920 5921 5922 5924 5925 5926 5928 5929 5929 5930 5930 5931
5809 5810 5811 5812 5814 5815 5817 5820 5823 5824 5825 5826 5828 5830 5833 5835 5837 5838 5840 5843 5844 5846 5848 5848 5849 5851 5853 5854 5855 5856 5857 5859 5860 5861 5862 5864 5865 5866 5867 5868 5869 5871 5874 5876 5877 5879 5880 5881 5882 5883 5885 5887 5889 5890 5891 5893 5895 5898 5901 5903 5905 5906 5905 5905 5907 5909 5911 5913 5914 5915 5915 5916 5917 5917 5918 5919 5920 5921 5923 5924 5925 5926 5926 5927 5928 5928
5807 5807 5809 5810 5812 5813 5815 5818 5820 5822 5823 5824 5826 5828 5831 5833 5835 5836 5839 5841 5843 5845 5847 5847 5848 5850 5852 5853 5854 5855 5857 5858 5860 5861 5862 5864 5865 5865 5866 5867 5868 5870 5872 5874 5875 5876 5878 5879 5880 5881 5882 5884 5885 5886 5889 5891 5893 5896 5898 5900 5901 5901 5902 5903 5904 5907 5909 5910 5911 5911 5912 5914 5916 5916 5917 5917 5918 5919 5920 5921 5922 5923 5923 5924 5925 5926
5805 5805 5806 5807 5809 5812 5814 5816 5818 5820 5821 5822 5824 5826 5829 5831 5833 5834 5837 5840 5842 5844 5846 5846 5847 5849 5850 5852 5853 5855 5856 5858 5859 5861 5862 5863 5864 5865 5865 5866 5867 5868 5870 5871 5872 5873 5875 5877 5878 5878 5879 5880 5881 5883 5886 5889 5891 5893 5895 5897 5898 5898 5900 5902 5903 5905 5906 5906 5907 5907 5909 5911 5913 5914 5915 5916 5916 5916 5917 5918 5919 5920 5921 5921 5922 5923
5803 5803 5803 5805 5807 5809 5812 5813 5815 5817 5819 5820 5822 5824 5827 5829 5830 5832 5835 5837 5840 5843 5844 5846 5847 5847 5849 5851 5852 5854 5855 5857 5858 5860 5861 5862 5863 5864 5865 5866 5866 5867 5868 5869 5870 5871 5872 5874 5876 5876 5877 5877 5879 5881 5884 5887 5889 5890 5892 5893 5895 5896 5898 5898 5899 5901 5902 5902 5903 5905 5906 5907 5909 5911 5913 5914 5914 5915 5916 5917 5917 5918 5918 5919 5920 5921
5801 5801 5802 5803 5804 5806 5808 5810 5812 5814 5816 5818 5819 5822 5824 5826 5827 5829 5833 5835 5838 5841 5842 5844 5845 5846 5848 5850 5851 5853 5854 5855 5857 5858 5860 5861 5862 5863 5864 5865 5866 5867 5868 5868 5869 5869 5871 5872 5874 5874 5874 5874 5875 5878 5880 5883 5885 5887 5888 5890 5892 5893 5894 5894 5895 5897 5898 5900 5901 5902 5904 5905 5906 5907 5909 5911 5912 5913 5913 5914 5915 5916 5916 5917 5918 5918
5799 5800 5800 5801 5802 5803 5805 5807 5809 5811 5813 5815 5818 5820 5822 5823 5825 5828 5831 5834 5836 5838 5840 5842 5843 5844 5846 5848 5849 5851 5852 5854 5855 5856 5858 5860 5861 5862 5862 5863 5865 5866 5867 5868 5868 5868 5869 5870 5871 5872 5871 5871 5872 5874 5876 5879 5881 5883 5885 5886 5887 5889 5889 5890 5891 5893 5895 5896 5897 5898 5900 5902 5903 5904 5906 5908 5909 5910 5910 5911 5913 5914 5915 5915 5916 5916
5798 5798 5799 5800 5800 5801 5801 5804 5806 5809 5811 5814 5816 5818 5820 5822 5823 5826 5829 5832 5834 5835 5837 5839 5841 5843 5844 5845 5847 5848 5850 5851 5853 5854 5856 5858 5859 5860 5861 5862 5863 5864 5865 5866 5866 5866 5867 5868 5869 5870 5870 5870 5870 5871 5873 5875 5877 5879 5881 5881 5882 5884 5885 5886 5887 5889 5891 5893 5894 5895 5897 5899 5900 5902 5904 5905 5906 5906 5907 5909 5911 5912 5913 5913 5914 5914
5797 5797 5797 5798 5798 5798 5799 5801 5803 5806 5809 5813 5815 5816 5818 5820 5821 5823 5826 5829 5831 5832 5834 5837 5840 5841 5841 5841 5842 5843 5845 5847 5850 5852 5854 5855 5856 5857 5858 5860 5861 5862 5863 5863 5863 5863 5864 5866 5868 5869 5869 5868 5869 5870 5871 5873 5874 5876 5877 5877 5879 5880 5881 5882 5884 5886 5888 5890 5891 5893 5895 5896 5898 5899 5901 5902 5903 5904 5905 5906 5907 5908 5909 5910 5911 5911
5795 5796 5796 5796 5796 5796 5797 5798 5800 5803 5807 5810 5812 5814 5816 5818 5819 5821 5824 5826 5827 5829 5831 5834 5837 5838 5836 5836 5838 5840 5842 5845 5847 5849 5851 5852 5854 5855 5856 5858 5858 5859 5861 5861 5860 5861 5864 5865 5866 5867 5867 5866 5867 5868 5869 5870 5871 5872 5873 5875 5876 5877 5879 5880 5882 5884 5885 5887 5889 5891 5892 5894 5895 5897 5898 5899 5900 5902 5903 5904 5904 5904 5906 5907 5908 5909
5793 5794 5794 5794 5794 5794 5794 5795 5797 5800 5804 5807 5810 5812 5814 5815 5816 5819 5821 5822 5824 5826 5827 5830 5833 5834 5833 5834 5837 5839 5841 5844 5845 5847 5849 5850 5851 5852 5854 5856 5856 5857 5858 5858 5858 5861 5863 5863 5863 5864 5865 5865 5866 5866 5867 5868 5868 5869 5871 5872 5874 5875 5876 5877 5879 5881 5883 5884 5886 5888 5889 5891 5893 5894 5896 5897 5898 5899 5900 5901 5901 5901 5903 5904 5905 5905
5791 5792 5792 5792 5792 5792 5792 5793 5794 5797 5800 5804 5806 5809 5810 5811 5813 5816 5818 5819 5821 5823 5824 5827 5829 5831 5832 5834 5836 5838 5840 5842 5843 5845 5847 5848 5848 5849 5851 5853 5854 5855 5855 5855 5856 5858 5859 5860 5862 5863 5863 5864 5865 5865 5865 5866 5867 5869 5870 5870 5871 5873 5874 5875 5876 5877 5879 5881 5883 5885 5887 5888 5890 5892 5893 5894 5895 5896 5896 5897 5898 5898 5899 5900 5900 5900
5788 5789 5789 5789 5789 5790 5791 5791 5792 5794 5796 5799 5801 5803 5806 5808 5810 5813 5815 5816 5819 5821 5822 5824 5827 5829 5831 5832 5834 5836 5838 5839 5841 5843 5845 5846 5846 5848 5849 5851 5852 5853 5853 5853 5854 5855 5856 5857 5860 5861 5861 5862 5863 5863 5864 5864 5865 5868 5869 5869 5869 5871 5872 5872 5873 5875 5877 5879 5881 5882 5884 5885 5887 5888 5889 5890 5891 5892 5892 5893 5894 5895 5896 5896 5896 5896
5785 5786 5787 5787 5787 5787 5788 5788 5789 5791 5793 5794 5796 5798 5801 5804 5807 5809 5812 5814 5816 5818 5821 5823 5825 5827 5829 5831 5833 5834 5835 5836 5838 5840 5842 5843 5844 5845 5846 5848 5849 5850 5851 5851 5851 5852 5853 5854 5856 5858 5860 5860 5860 5861 5862 5862 5863 5865 5866 5867 5868 5869 5870 5870 5872 5873 5875 5876 5878 5880 5881 5882 5884 5885 5886 5887 5888 5888 5888 5889 5890 5892 5893 5893 5893 5892
5783 5784 5784 5784 5784 5784 5785 5785 5786 5787 5789 5790 5792 5794 5797 5800 5803 5806 5809 5811 5813 5815 5818 5820 5822 5825 5827 5829 5831 5833 5833 5834 5836 5837 5839 5840 5841 5842 5843 5844 5846 5847 5847 5847 5848 5849 5850 5851 5853 5855 5857 5858 5859 5859 5860 5860 5861 5862 5864 5865 5866 5867 5868 5869 5870 5871 5872 5874 5875 5877 5878 5879 5880 5881 5882 5883 5884 5884 5884 5886 5887 5888 5889 5889 5889 5888
5781 5781 5782 5782 5781 5782 5782 5782 5783 5784 5785 5787 5789 5791 5793 5797 5800 5803 5806 5808 5810 5812 5814 5817 5819 5822 5825 5827 5829 5831 5832 5832 5833 5835 5836 5838 5839 5839 5840 5841 5843 5844 5844 5845 5845 5846 5847 5848 5850 5852 5854 5855 5857 5858 5859 5859 5860 5861 5862 5863 5864 5865 5866 5867 5868 5869 5870 5871 5873 5874 5875 5876 5877 5878 5879 5880 5881 5881 5881 5882 5883 5884 5886 5885 5885 5884
5779 5779 5779 5780 5779 5779 5779 5780 5780 5781 5783 5784 5786 5788 5790 5793 5796 5799 5802 5804 5807 5809 5811 5813 5816 5819 5822 5825 5827 5829 5830 5830 5831 5832 5833 5835 5837 5837 5838 5838 5840 5841 5842 5842 5843 5844 5845 5846 5847 5849 5851 5852 5854 5856 5857 5858 5859 5859 5860 5861 5862 5863 5864 5865 5866 5867 5868 5869 5870 5871 5872 5873 5874 5875 5876 5876 5877 5878 5878 5879 5879 5880 5882 5882 5882 5882
5777 5777 5777 5778 5777 5777 5777 5777 5778 5779 5780 5782 5783 5785 5787 5789 5792 5795 5798 5801 5804 5806 5808 5811 5813 5816 5819 5822 5824 5825 5827 5828 5828 5829 5830 5832 5834 5835 5835 5836 5837 5838 5839 5840 5842 5843 5844 5845 5846 5847 5849 5850 5851 5853 5854 5856 5857 5858 5859 5859 5860 5861 5862 5863 5864 5864 5866 5867 5868 5868 5869 5870 5871 5871 5872 5873 5873 5874 5875 5875 5876 5876 5877 5878 5878 5878
5775 5775 5776 5776 5775 5775 5774 5775 5776 5777 5778 5779 5781 5783 5785 5787 5790 5793 5796 5798 5801 5804 5806 5808 5811 5813 5815 5818 5820 5822 5824 5825 5826 5826 5828 5830 5831 5832 5833 5833 5834 5836 5837 5838 5840 5841 5843 5844 5845 5846 5847 5848 5849 5850 5852 5853 5855 5856 5857 5857 5858 5858 5859 5860 5860 5861 5862 5863 5864 5865 5865 5866 5867 5867 5868 5869 5869 5870 5870 5871 5871 5872 5872 5873 5874 5874
5773 5773 5774 5774 5773 5772 5772 5773 5774 5775 5776 5778 5779 5781 5783 5785 5788 5790 5793 5796 5799 5801 5804 5806 5808 5810 5812 5815 5817 5819 5821 5823 5823 5824 5825 5827 5827 5829 5830 5831 5832 5833 5834 5835 5837 5839 5840 5841 5842 5844 5845 5846 5847 5848 5848 5850 5851 5852 5853 5854 5855 5855 5856 5856 5857 5857 5858 5859 5860 5861 5861 5862 5863 5864 5864 5865 5865 5866 5866 5866 5867 5867 5867 5868 5869 5869
5771 5772 5772 5772 5771 5771 5771 5771 5772 5773 5774 5776 5777 5779 5781 5784 5786 5788 5791 5794 5796 5799 5801 5803 5805 5807 5809 5811 5814 5816 5818 5820 5821 5821 5822 5824 5825 5826 5827 5829 5830 5832 5833 5834 5835 5836 5837 5839 5840 5841 5842 5843 5844 5845 5846 5846 5847 5848 5849 5850 5851 5851 5852 5852 5853 5854 5854 5855 5856 5856 5857 5858 5859 5859 5860 5861 5861 5861 5862 5862 5862 5862 5862 5863 5864 5864
5770 5770 5770 5771 5770 5770 5770 5770 5770 5771 5771 5773 5776 5777 5778 5781 5783 5785 5787 5790 5793 5795 5798 5800 5802 5804 5806 5808 5810 5812 5814 5816 5817 5818 5819 5820 5822 5823 5825 5827 5828 5830 5831 5832 5833 5834 5835 5836 5837 5838 5839 5840 5841 5842 5843 5844 5844 5845 5846 5847 5847 5848 5848 5848 5849 5850 5850 5851 5852 5852 5853 5854 5854 5855 5855 5856 5857 5857 5857 5857 5858 5857 5858 5858 5858 5859
5769 5769 5770 5770 5770 5770 5769 5769 5769 5769 5769 5771 5773 5774 5775 5777 5780 5782 5785 5788 5790 5792 5794 5797 5799 5802 5804 5805 5807 5809 5810 5812 5813 5815 5816 5817 5818 5820 5822 5824 5826 5827 5828 5830 5831 5831 5832 5833 5834 5835 5836 5837 5838 5839 5839 5840 5841 5842 5842 5843 5844 5844 5845 5845 5845 5845 5846 5846 5847 5848 5848 5849 5850 5850 5851 5851 5852 5852 5853 5853 5853 5853 5853 5853 5854 5854
5768 5768 5769 5769 5769 5769 5769 5768 5768 5768 5768 5770 5771 5772 5773 5775 5778 5780 5783 5786 5788 5791 5793 5795 5797 5799 5801 5803 5805 5806 5808 5809 5810 5812 5813 5814 5816 5817 5819 5821 5822 5824 5825 5826 5828 5829 5829 5830 5831 5831 5832 5833 5834 5834 5835 5836 5837 5837 5838 5838 5839 5840 5840 5841 5841 5841 5841 5842 5842 5843 5843 5844 5845 5845 5846 5846 5847 5847 5848 5848 5848 5848 5848 5848 5849 5849
5768 5768 5768 5769 5769 5768 5769 5769 5768 5768 5769 5769 5770 5771 5772 5774 5776 5779 5781 5783 5786 5788 5791 5793 5795 5797 5799 5800 5802 5804 5805 5807 5808 5809 5811 5812 5814 5815 5816 5817 5819 5820 5822 5823 5824 5825 5826 5827 5827 5827 5828 5829 5829 5830 5831 5831 5832 5833 5833 5833 5834 5834 5835 5836 5836 5837 5837 5837 5837 5838 5838 5838 5839 5840 5840 5841 5841 5841 5842 5842 5842 5842 5842 5842 5842 5843